Location: Zagreb
(45.8000°N, 16.0000°E)
Time: 22:59:58
(UTC+02:00)

Envisat - Visible Passes

Search period start: 25 September 2020 00:00
Search period end: 05 October 2020 00:00
Orbit: 764 x 766 km, 98.1° (Epoch: 25 September)

Date Brightness Start Highest point End Pass type
(mag) Time Alt. Az. Time Alt. Az. Time Alt. Az.
25 Sep 6.5 05:33:15 10° ENE 05:34:57 12° E 05:36:39 10° ESE visible
26 Sep 6.2 19:31:10 10° SW 19:34:14 16° W 19:37:21 10° NW visible
27 Sep 6.0 05:57:00 10° NE 06:00:43 20° E 06:04:25 10° SE visible
29 Sep 5.1 06:21:47 10° NNE 06:26:23 33° E 06:30:57 10° SSE visible
29 Sep 6.0 19:19:04 10° SW 19:22:45 20° W 19:26:28 10° NW visible
30 Sep 6.2 05:46:07 10° NE 05:49:13 16° E 05:52:20 10° SE visible
01 Oct 6.6 19:46:50 10° WSW 19:48:31 11° W 19:50:12 10° WNW visible
02 Oct 5.5 06:10:38 10° NE 06:14:57 27° E 06:19:13 10° SSE visible
02 Oct 5.7 19:07:09 10° SSW 19:11:16 25° W 19:15:26 10° NW visible
03 Oct 6.4 05:35:31 10° ENE 05:37:43 13° E 05:39:55 10° ESE visible
04 Oct 6.3 19:34:12 10° WSW 19:37:00 15° W 19:39:49 10° NW visible
